Regional Weather Roundup
Issued by NWS

Home | Current Version | Previous Version | Text Only | Print | Product List | Glossary Off
Versions: 1 2 3 4 5 6 7 8 9 10 11 12 13 14 15 16 17 18 19 20 21 22 23 24 25 26 27 28 29 30 31 32 33 34 35 36 37 38 39 40 41 42 43 44 45 46 47 48 49 50

000
ASUS43 KDTX 181310
RWRMI
MICHIGAN HOURLY REGIONAL WEATHER ROUNDUP
NATIONAL WEATHER SERVICE DETROIT/PONTIAC MI
ISSUED BY NATIONAL WEATHER SERVICE GRAND RAPIDS MI
800 AM EST WED JAN 18 2017

NOTE: "FAIR" INDICATES FEW OR NO CLOUDS BELOW 12,000 FEET WITH NO
SIGNIFICANT WEATHER AND/OR OBSTRUCTION TO VISIBILITY.

MIZ047>049-052>055-059>063-066>070-074>076-081>083-181400-
SOUTHEAST LOWER MICHIGAN

CITY           SKY/WX    TMP DP  RH WIND       PRES   REMARKS
ADRIAN         CLOUDY    34  34 100 W8        30.06R WCI  27
ALMA           CLOUDY    35  35  99 W7        30.02R FOG     WCI  29
ANN ARBOR      CLOUDY    36  35  96 SW8       30.03R WCI  30
BAD AXE        CLOUDY    33  33 100 W3        29.98R FOG
DETROIT        CLOUDY    37  35  92 SW9       30.03R FOG     WCI  30
FLINT          FOG       35  35 100 W10       30.01R VSB 1   WCI  27
GROSSE ILE     CLOUDY    36  34  94 W7        30.02R FOG     WCI  30
HILLSDALE      CLOUDY    32  32 100 W8        30.03R FOG     WCI  25
HOWELL         CLOUDY    35  34  96 W10       30.01R FOG     WCI  27

CITY           SKY/WX    TMP DP  RH WIND       PRES   REMARKS
JACKSON        CLOUDY    35  34  96 W8        30.03R FOG     WCI  29
LANSING        CLOUDY    36  33  89 W13       30.04R FOG     WCI  27
MASON          CLOUDY    35  35 100 W7        30.03R WCI  29
MONROE         CLOUDY    35  35  99 W9        30.04R WCI  28
MT. CLEMENS    CLOUDY    37  37  99 W7        29.99R WCI  32
PONTIAC        CLOUDY    35  33  92 W10       29.98R FOG     WCI  27
PORT HOPE        N/A     34  33  96 W3        29.96R
PORT HURON     CLOUDY    36  36 100 W3        29.99S
TRI CITIES     CLOUDY    35  35 100 W8        30.01R FOG     WCI  29
YPSILANTI      CLOUDY    37  36  96 W9        30.03R WCI  30
$$
MIZ043>046-050>051-056>058-064>065-071>073-077>080-181400-
SOUTHWEST LOWER MICHIGAN

CITY           SKY/WX    TMP DP  RH WIND       PRES   REMARKS
BATTLE CREEK   CLOUDY    36  35  96 W13       30.06R WCI  27
BENTON HARBOR  CLOUDY    36  34  92 W12       30.10R FOG     WCI  28
BIG RAPIDS     CLOUDY    34  33  96 W9G16     30.00R FOG     WCI  27
COLDWATER      CLOUDY    35  35 100 W10       30.06R FOG     WCI  27
HOLLAND        CLOUDY    36  34  92 W7        30.06R WCI  30
GRAND RAPIDS   CLOUDY    35  33  92 W12       30.05R FOG     WCI  27
KALAMAZOO      CLOUDY    36  33  89 W12       30.07R FOG     WCI  28
MARSHALL       CLOUDY    35  35  99 W9        30.04R FOG     WCI  28
MOUNT PLEASANT CLOUDY    35  34  98 W6        29.99R WCI  30
MUSKEGON       CLOUDY    37  35  92 W5        30.06R WCI  33
STURGIS        CLOUDY    34  33  98 W7        30.07R FOG     WCI  28
$$
MIZ016>042-181400-
NORTHERN LOWER MICHIGAN

CITY           SKY/WX    TMP DP  RH WIND       PRES   REMARKS
ALPENA         CLOUDY    33  32  96 W5        29.97R FOG     WCI  29
BEAVER ISLAND  CLOUDY    32  32 100 SW8       29.95S WCI  25
BELLAIRE       CLOUDY    34  33  99 SW5       29.99R WCI  30
CADILLAC       FOG       32  32  99 W6        29.97R VSB 1/4 WCI  27
CHARLEVOIX     CLOUDY    34  34 100 SW7       29.99S WCI  28
GAYLORD        FOG       32  29  88 W10       29.94R VSB 1/4 WCI  24
HOUGHTON LAKE  CLOUDY    32  31  96 NW8       29.98R FOG     WCI  25
MANISTEE       CLOUDY    34  33  96 SW3       30.02R
OSCODA         CLOUDY    34  33  96 SW3       29.97R FOG
PELLSTON       CLOUDY    32  30  92 SW5       29.96R WCI  27
TRAVERSE CITY  FOG       34  33  96 W7        29.99R VSB 3/4 WCI  28
LUDINGTON      CLOUDY    35  35 100 W3        30.02R FOG
$$
MIZ007>008-015-181400-
EASTERN UPPER MICHIGAN

CITY           SKY/WX    TMP DP  RH WIND       PRES   REMARKS
KINROSS        CLOUDY    30  28  93 S7        29.93R FOG     WCI  23
MACKINAC ISLAN FOG       31  31 100 SW10G18   29.94S VSB 1/2 WCI  22
NEWBERRY       FOG       30  29  97 SW10      29.90R VSB 1   WCI  21
S. S. MARIE    FOG       30  28  92 SW9       29.91S VSB 1/2 WCI  22
$$
MIZ004>006-011>014-085-181400-
CENTRAL UPPER MICHIGAN

CITY           SKY/WX    TMP DP  RH WIND       PRES   REMARKS
MANISTIQUE     CLOUDY    30  30  98 SW6       29.93R FOG     WCI  24
ESCANABA       FOG       32  31  96 S8        29.93S VSB 1/2 WCI  25
SAWYER-GWINN   CLEAR     21  21 100 S7        29.86S WCI  13
$$
MIZ001>003-009>011-084-181400-
WESTERN UPPER MICHIGAN

CITY           SKY/WX    TMP DP  RH WIND       PRES   REMARKS
IRON MOUNTAIN  CLOUDY    13   8  81 CALM      29.88S
HOUGHTON       CLOUDY    29  22  75 S9        29.76F WCI  20
COPPER HARBOR    N/A     31  24  75 VRB5      29.76F WCI  26
IRONWOOD       CLOUDY    31  25  78 S13       29.80F WCI  21
$$

ABBREVIATIONS USED IN REMARKS
   TC - TEMPERATURE IN CELSIUS
  WCI - WIND CHILL INDEX
   HX - HEAT INDEX
  VSB - VISIBILITY





USA.gov is the U.S. government's official web portal to all federal, state and local government web resources and services.